Location: Valencia
(39.4696°N, 0.3770°W)
Time: 21:54:39
(UTC+02:00)

ISS - Visible Passes

Search period start: 21 October 2014 00:00
Search period end: 30 October 2014 23:00
Orbit: 413 x 416 km, 51.6° (Epoch: 21 October)

Date Brightness Start Highest point End Pass type
(mag) Time Alt. Az. Time Alt. Az. Time Alt. Az.
21 Oct -1.3 20:17:26 10° NNW 20:19:36 16° NNE 20:20:30 15° NE visible
22 Oct -1.6 21:04:28 10° NW 21:06:22 27° NNW 21:06:22 27° NNW visible
23 Oct -2.0 20:15:33 10° NNW 20:18:28 27° NNE 20:19:25 23° ENE visible
23 Oct 0.2 21:52:06 10° WNW 21:52:18 11° WNW 21:52:18 11° WNW visible
24 Oct -2.4 21:02:50 10° NW 21:05:26 50° WNW 21:05:26 50° WNW visible
25 Oct -3.3 20:13:40 10° NW 20:17:00 63° NE 20:18:41 26° ESE visible
26 Oct -1.2 20:01:32 10° WNW 20:04:16 24° SW 20:04:59 22° SSW visible
27 Oct -2.2 19:11:57 10° WNW 19:15:08 43° SW 19:18:19 10° SSE visible
29 Oct -0.3 19:10:53 10° W 19:12:55 15° SW 19:14:58 10° SSW visible
